AE4BA-13 Weather Reports


Display with metric or nautical units.
time (UTC)temp
F
wind
direction
speed
MPH
gust
MPH
rain 1hr
in
rain 24hr
in
rain mn
in
humidity
%
barometer
mb
20260906121430 69 298 0.0 3.0 0.00 0.00 0.00 92 1007.6
20260906120430 69 272 2.0 4.0 0.00 0.00 0.00 92 1007.5
20260906115430 69 325 0.0 3.0 0.00 0.00 0.00 92 1007.3
20260906114430 69 305 1.0 3.0 0.00 0.00 0.00 92 1007.3
20260906113430 69 301 1.0 3.0 0.00 0.00 0.00 92 1007.0
20260906112430 68 313 2.0 5.0 0.00 0.00 0.00 92 1006.9
20260906111430 69 3 2.0 3.0 0.00 0.00 0.00 92 1006.6
20260906110430 69 290 1.0 3.0 0.00 0.00 0.00 92 1007.0
20260906105430 69 311 1.0 3.0 0.00 0.00 0.00 91 1007.0
20260906104430 69 323 1.0 2.0 0.00 0.00 0.00 90 1007.1
20260906103430 69 289 1.0 2.0 0.00 0.00 0.00 90 1006.9
20260906102430 69 302 1.0 3.0 0.00 0.00 0.00 91 1006.7
20260906101430 69 269 1.0 3.0 0.00 0.00 0.00 90 1006.6
20260906100430 70 303 0.0 2.0 0.00 0.00 0.00 90 1006.6
20260906095430 70 296 1.0 3.0 0.00 0.00 0.00 89 1006.5
20260906094430 70 331 1.0 4.0 0.00 0.00 0.00 89 1006.5
20260906093430 70 288 0.0 3.0 0.00 0.00 0.00 88 1006.3
20260906092430 70 301 1.0 3.0 0.00 0.00 0.00 88 1006.3
20260906091430 70 303 1.0 3.0 0.00 0.00 0.00 88 1006.3
20260906090430 70 280 1.0 3.0 0.00 0.00 0.00 87 1006.1
20260906085430 70 272 2.0 5.0 0.00 0.00 0.00 86 1006.0
20260906084430 70 235 2.0 6.0 0.00 0.00 0.00 85 1005.9
20260906083430 70 288 2.0 7.0 0.00 0.00 0.00 85 1005.9
20260906082430 70 321 3.0 7.0 0.00 0.00 0.00 84 1005.8
20260906081430 70 352 5.0 7.0 0.00 0.00 0.00 86 1005.9
20260906080430 70 285 1.0 5.0 0.00 0.00 0.00 87 1005.9
20260906075430 70 352 2.0 5.0 0.00 0.00 0.00 87 1005.7
20260906074430 70 249 2.0 5.0 0.00 0.00 0.00 88 1005.6
20260906073430 70 200 2.0 5.0 0.00 0.00 0.00 88 1005.7
20260906072430 70 128 2.0 7.0 0.00 0.00 0.00 88 1005.8
20260906071430 70 261 1.0 7.0 0.00 0.00 0.00 88 1005.7
20260906070430 71 213 3.0 6.0 0.00 0.00 0.00 87 1005.8
20260906065430 71 23 1.0 5.0 0.00 0.00 0.00 86 1005.9
20260906064430 71 201 4.0 6.0 0.00 0.00 0.00 85 1005.9
20260906063430 72 300 2.0 4.0 0.00 0.00 0.00 85 1006.0
20260906062430 72 289 1.0 6.0 0.00 0.00 0.00 83 1006.2
20260906061430 72 283 1.0 6.0 0.00 0.00 0.00 83 1006.1
20260906060430 72 175 3.0 9.0 0.00 0.00 0.00 82 1006.2
20260906055430 73 290 3.0 9.0 0.00 0.00 0.00 81 1006.3
20260906054430 73 296 4.0 9.0 0.00 0.00 0.00 81 1006.4
20260906053430 73 109 3.0 11.0 0.00 0.00 0.00 81 1006.4
20260906052430 73 270 1.0 6.0 0.00 0.00 0.00 80 1006.4
20260906051430 74 180 2.0 9.0 0.00 0.00 0.00 79 1006.3
20260906050430 74 157 2.0 4.0 0.00 0.00 0.00 78 1006.3
20260906045430 74 157 1.0 4.0 0.00 0.00 0.00 77 1006.3
20260906044430 73 140 2.0 5.0 0.00 0.00 0.00 78 1006.3
20260906043430 73 77 1.0 4.0 0.00 0.00 0.00 79 1006.3
20260906042430 73 132 1.0 6.0 0.00 0.00 0.00 79 1006.3
20260906041430 73 204 2.0 8.0 0.00 0.00 0.00 79 1006.2
20260906040430 74 152 2.0 7.0 0.00 0.00 0.00 78 1006.5
20260906035430 74 121 1.0 3.0 0.00 0.00 0.00 78 1006.6
20260906034430 74 213 2.0 4.0 0.00 0.00 0.00 78 1006.6
20260906033430 74 218 1.0 4.0 0.00 0.00 0.00 78 1006.6
20260906032430 75 348 1.0 5.0 0.00 0.00 0.00 77 1006.6
20260906031430 75 293 1.0 3.0 0.00 0.00 0.00 76 1006.7
20260906030430 75 316 2.0 4.0 0.00 0.00 0.00 76 1006.7
20260906025430 76 314 3.0 6.0 0.00 0.00 0.00 74 1006.6
20260906024431 76 315 2.0 7.0 0.00 0.00 0.00 74 1006.5
20260906023430 77 317 4.0 9.0 0.00 0.00 0.00 73 1006.6
20260906022430 77 316 4.0 9.0 0.00 0.00 0.00 71 1006.5
20260906021430 78 141 3.0 4.0 0.00 0.00 0.00 69 1006.4
20260906020430 78 138 2.0 9.0 0.00 0.00 0.00 68 1006.3
20260906015430 78 131 2.0 10.0 0.00 0.00 0.00 65 1006.2
20260906014430 78 135 1.0 8.0 0.00 0.00 0.00 66 1006.1
20260906013430 78 153 0.0 7.0 0.00 0.00 0.00 68 1005.9
20260906012430 78 128 7.0 12.0 0.00 0.00 0.00 69 1005.8
20260906011430 78 131 1.0 5.0 0.00 0.00 0.00 69 1005.8
20260906010430 79 0 0.0 4.0 0.00 0.00 0.00 68 1005.7
20260906005430 79 0 0.0 4.0 0.00 0.00 0.00 67 1005.6
20260906004430 79 140 1.0 2.0 0.00 0.00 0.00 67 1005.5
20260906003430 80 148 0.0 3.0 0.00 0.00 0.00 66 1005.3
20260906002430 80 0 0.0 3.0 0.00 0.00 0.00 66 1005.4
20260906001430 80 0 0.0 7.0 0.00 0.00 0.00 66 1005.2
20260906000433 80 140 0.0 5.0 0.00 0.00 0.00 66 1004.9
20260905235430 81 144 0.0 3.0 0.00 0.00 0.00 65 1004.9
20260905234430 82 140 1.0 3.0 0.00 0.00 0.00 63 1004.9
20260905233430 83 141 1.0 3.0 0.00 0.00 0.00 62 1005.0
20260905232430 84 98 1.0 3.0 0.00 0.00 0.00 59 1005.0
20260905231430 86 137 0.0 5.0 0.00 0.00 0.00 56 1005.0
20260905230430 86 82 0.0 3.0 0.00 0.00 0.00 54 1005.0
20260905225430 87 46 2.0 4.0 0.00 0.00 0.00 55 1005.0
20260905224430 89 333 0.0 3.0 0.00 0.00 0.00 51 1005.2
20260905223430 89 283 0.0 4.0 0.00 0.00 0.00 52 1005.1
20260905222430 89 33 3.0 6.0 0.00 0.00 0.00 50 1005.0
20260905222027 89 246 1.0 3.0 0.00 0.00 0.00 50 1005.0
20260905221644 89 274 0.0 3.0 0.00 0.00 0.00 50 1005.0
20260905220150 89 44 1.0 3.0 0.00 0.00 0.00 50 1004.9
20260905215309 88 87 1.0 6.0 0.00 0.00 0.00 51 1004.8
20260905214334 87 285 2.0 5.0 0.00 0.00 0.00 52 1004.8
20260905213334 86 285 2.0 6.0 0.00 0.00 0.00 55 1004.7
20260905212334 86 316 0.0 7.0 0.00 0.00 0.00 56 1004.6
20260905211334 86 8 1.0 4.0 0.00 0.00 0.00 55 1004.5
20260905210334 86 17 1.0 2.0 0.00 0.00 0.00 54 1004.6
20260905205334 87 30 0.0 3.0 0.00 0.00 0.00 54 1004.6
20260905204334 88 74 2.0 5.0 0.00 0.00 0.00 52 1004.7
20260905203334 89 37 1.0 4.0 0.00 0.00 0.00 50 1004.7
20260905202334 90 15 2.0 7.0 0.00 0.00 0.00 49 1004.7
20260905201334 89 332 2.0 6.0 0.00 0.00 0.00 51 1004.5
20260905200334 88 325 2.0 5.0 0.00 0.00 0.00 53 1004.3
20260905195334 87 52 2.0 10.0 0.00 0.00 0.00 55 1004.3
20260905194334 89 61 4.0 7.0 0.00 0.00 0.00 51 1004.5
20260905193334 89 329 1.0 5.0 0.00 0.00 0.00 52 1004.6
20260905192334 88 14 3.0 9.0 0.00 0.00 0.00 52 1004.7
20260905191334 87 281 3.0 7.0 0.00 0.00 0.00 53 1004.9
20260905190334 87 292 1.0 5.0 0.00 0.00 0.00 52 1005.1
20260905185334 87 220 1.0 5.0 0.00 0.00 0.00 55 1005.4
20260905184334 88 291 3.0 7.0 0.00 0.00 0.00 54 1005.6
20260905183334 87 315 1.0 6.0 0.00 0.00 0.00 56 1005.8
20260905182334 86 213 2.0 7.0 0.00 0.00 0.00 57 1005.9
20260905181334 85 61 1.0 4.0 0.00 0.00 0.00 59 1006.0
20260905180334 84 54 2.0 6.0 0.00 0.00 0.00 60 1006.0
20260905175334 85 22 1.0 4.0 0.00 0.00 0.00 59 1006.2
20260905174334 86 192 2.0 6.0 0.00 0.00 0.00 56 1006.3
20260905173334 85 69 2.0 4.0 0.00 0.00 0.00 55 1006.2
20260905172334 84 33 1.0 3.0 0.00 0.00 0.00 57 1006.3
20260905171334 84 4 2.0 5.0 0.00 0.00 0.00 56 1006.2
20260905170334 83 314 3.0 7.0 0.00 0.00 0.00 56 1005.9
20260905165334 84 313 4.0 5.0 0.00 0.00 0.00 58 1006.2
20260905164334 84 315 3.0 4.0 0.00 0.00 0.00 57 1006.6
20260905163334 85 314 2.0 7.0 0.00 0.00 0.00 56 1006.7
20260905162334 85 314 3.0 6.0 0.00 0.00 0.00 56 1007.1
20260905161334 83 315 4.0 5.0 0.00 0.00 0.00 60 1007.0
20260905160334 81 314 2.0 7.0 0.00 0.00 0.00 62 1007.1
20260905155334 79 310 3.0 4.0 0.00 0.00 0.00 68 1007.5
20260905154357 78 296 2.0 7.0 0.00 0.00 0.00 71 1007.7
20260905153357 78 315 3.0 5.0 0.00 0.00 0.00 71 1007.2
20260905153108 78 313 4.0 5.0 0.00 0.00 0.00 72 1007.3
20260905152444 78 314 2.0 5.0 0.00 0.00 0.00 73 1007.6
20260905152206 78 315 4.0 5.0 0.00 0.00 0.00 72 1007.7
20260905151904 78 314 4.0 5.0 0.00 0.00 0.00 71 1007.7
20260905151747 78 314 4.0 6.0 0.00 0.00 0.00 71 1007.7
20260905151112 78 314 3.0 6.0 0.00 0.00 0.00 70 1007.5
20260905151021 78 314 3.0 6.0 0.00 0.00 0.00 70 1007.5
20260905150851 78 314 2.0 7.0 0.00 0.00 0.00 71 1007.5
20260905145757 79 316 3.0 5.0 0.00 0.00 0.00 72 1007.7
20260905144757 80 314 4.0 5.0 0.00 0.00 0.00 72 1007.7
20260905143757 81 315 3.0 4.0 0.00 0.00 0.00 70 1007.5
20260905142757 81 316 3.0 4.0 0.00 0.00 0.00 70 1007.3
20260905141757 81 311 2.0 4.0 0.00 0.00 0.00 69 1007.3
20260905140757 80 311 2.0 3.0 0.00 0.00 0.00 69 1007.1
20260905135757 79 312 2.0 3.0 0.00 0.00 0.00 74 1007.1
20260905134757 78 313 2.0 2.0 0.00 0.00 0.00 73 1007.0
20260905133757 77 316 2.0 3.0 0.00 0.00 0.00 74 1007.0
20260905132757 77 316 3.0 5.0 0.00 0.00 0.00 75 1006.8
20260905132526 77 305 2.0 3.0 0.00 0.00 0.00 73 1006.8
20260905131045 77 309 2.0 5.0 0.00 0.00 0.00 74 1006.9
20260905130045 77 319 2.0 10.0 0.00 0.00 0.00 74 1006.8
20260905124237 76 198 2.0 8.0 0.00 0.00 0.00 73 1006.7